When you browse on this site, cookies collect data to enhance your experience and personalize the content and advertising you see.
Visit our Privacy Policy to learn more. By continuing to use the site, you agree to this use of cookies and data.
  • In Austria
  • List of Countries
  • For 7 days
  • Water Temperature
  • Satellite Maps
  • Weather Map
  • News
  • Weather Widgets
  • user-avatar
    Login

    Hourly Weather Cranford

    Today, 19 July, Friday

    Time Temperature Precipitation Wind Pressure Humidity
    00:00 +26°C° 0 mm 2 mps 756 mmHg 84%
    01:00 +26°C° 0 mm 2 mps 756 mmHg 84%
    02:00 +26°C° 0 mm 2 mps 756 mmHg 85%
    03:00 +26°C° 0 mm 2 mps 756 mmHg 86%
    04:00 +25°C° 0 mm 1 mps 756 mmHg 86%
    05:00 +26°C° 0 mm 1 mps 757 mmHg 83%
    06:00 +27°C° 0 mm 1 mps 757 mmHg 80%
    07:00 +27°C° 0 mm 1 mps 757 mmHg 78%
    08:00 +29°C° 0 mm 1 mps 757 mmHg 71%
    09:00 +31°C° 0 mm 1 mps 757 mmHg 64%
    10:00 +32°C° 0 mm 2 mps 757 mmHg 58%
    11:00 +35°C° 0 mm 2 mps 757 mmHg 54%
    12:00 +36°C° 0 mm 3 mps 756 mmHg 51%
    13:00 +37°C° 0 mm 3 mps 756 mmHg 47%
    14:00 +37°C° 0 mm 4 mps 756 mmHg 46%
    15:00 +37°C° 0 mm 4 mps 755 mmHg 46%
    16:00 +38°C° 0 mm 4 mps 755 mmHg 45%
    17:00 +37°C° 0 mm 4 mps 755 mmHg 50%
    18:00 +36°C° 0 mm 4 mps 755 mmHg 55%
    19:00 +35°C° 0 mm 3 mps 755 mmHg 60%
    20:00 +34°C° 0.8 mm 3 mps 756 mmHg 63%
    21:00 +33°C° 0.8 mm 3 mps 756 mmHg 65%
    22:00 +32°C° 0.8 mm 2 mps 756 mmHg 68%
    23:00 +31°C° 0.6 mm 3 mps 756 mmHg 70%

    Tomorrow, 20 July, Saturday

    Time Temperature Precipitation Wind Pressure Humidity
    00:00 +30°C° 0.6 mm 3 mps 755 mmHg 71%
    01:00 +30°C° 0.6 mm 3 mps 755 mmHg 73%
    02:00 +30°C° 0 mm 3 mps 755 mmHg 74%
    03:00 +29°C° 0 mm 3 mps 755 mmHg 74%
    04:00 +29°C° 0 mm 3 mps 755 mmHg 75%
    05:00 +29°C° 0 mm 3 mps 755 mmHg 74%
    06:00 +30°C° 0 mm 2 mps 756 mmHg 72%
    07:00 +30°C° 0 mm 2 mps 756 mmHg 71%
    08:00 +32°C° 0 mm 2 mps 756 mmHg 65%
    09:00 +35°C° 0 mm 3 mps 756 mmHg 59%
    10:00 +37°C° 0 mm 3 mps 756 mmHg 53%
    11:00 +38°C° 0 mm 3 mps 755 mmHg 50%
    12:00 +40°C° 0 mm 4 mps 755 mmHg 48%
    13:00 +41°C° 0 mm 4 mps 755 mmHg 45%
    14:00 +40°C° 0 mm 5 mps 754 mmHg 47%
    15:00 +40°C° 0 mm 5 mps 754 mmHg 48%
    16:00 +40°C° 0 mm 5 mps 754 mmHg 50%
    17:00 +39°C° 0 mm 5 mps 754 mmHg 53%
    18:00 +37°C° 0 mm 4 mps 754 mmHg 56%
    19:00 +36°C° 0 mm 4 mps 754 mmHg 58%
    20:00 +36°C° 0 mm 4 mps 754 mmHg 60%
    21:00 +35°C° 0 mm 3 mps 754 mmHg 63%
    22:00 +34°C° 0 mm 3 mps 754 mmHg 65%
    23:00 +34°C° 0.1 mm 3 mps 754 mmHg 64%

    Day after tomorrow, 21 July, Sunday

    Time Temperature Precipitation Wind Pressure Humidity
    00:00 +33°C° 0.1 mm 3 mps 754 mmHg 64%
    01:00 +33°C° 0.1 mm 3 mps 754 mmHg 63%
    02:00 +31°C° 0 mm 2 mps 754 mmHg 64%
    03:00 +31°C° 0 mm 2 mps 754 mmHg 64%
    04:00 +30°C° 0 mm 2 mps 754 mmHg 65%
    05:00 +31°C° 0 mm 2 mps 754 mmHg 64%
    06:00 +31°C° 0 mm 2 mps 754 mmHg 64%
    07:00 +32°C° 0 mm 2 mps 754 mmHg 63%
    08:00 +35°C° 0 mm 3 mps 754 mmHg 59%
    09:00 +36°C° 0 mm 3 mps 754 mmHg 54%
    10:00 +38°C° 0 mm 3 mps 754 mmHg 50%
    11:00 +40°C° 0 mm 4 mps 754 mmHg 45%
    12:00 +41°C° 0 mm 4 mps 754 mmHg 41%
    13:00 +42°C° 0 mm 4 mps 753 mmHg 37%
    14:00 +41°C° 0 mm 4 mps 753 mmHg 38%
    15:00 +41°C° 0 mm 5 mps 753 mmHg 39%
    16:00 +41°C° 0 mm 5 mps 753 mmHg 40%
    17:00 +39°C° 0 mm 5 mps 753 mmHg 45%
    18:00 +37°C° 0 mm 4 mps 753 mmHg 49%
    19:00 +35°C° 0 mm 4 mps 753 mmHg 54%
    20:00 +34°C° 0.7 mm 4 mps 753 mmHg 56%
    21:00 +33°C° 0.7 mm 4 mps 753 mmHg 59%
    22:00 +32°C° 0.7 mm 4 mps 754 mmHg 61%
    23:00 +30°C° 1 mm 3 mps 753 mmHg 66%

    22 July, Monday

    Time Temperature Precipitation Wind Pressure Humidity
    00:00 +29°C° 1 mm 2 mps 753 mmHg 70%
    01:00 +28°C° 1 mm 2 mps 753 mmHg 74%
    02:00 +28°C° 0.2 mm 2 mps 753 mmHg 74%
    03:00 +28°C° 0.2 mm 2 mps 753 mmHg 74%
    04:00 +27°C° 0.2 mm 2 mps 754 mmHg 74%
    05:00 +27°C° 0.2 mm 2 mps 754 mmHg 72%
    06:00 +26°C° 0.2 mm 2 mps 754 mmHg 69%
    07:00 +26°C° 0.2 mm 2 mps 754 mmHg 67%
    08:00 +27°C° 0.1 mm 2 mps 755 mmHg 63%
    09:00 +28°C° 0.1 mm 1 mps 755 mmHg 59%
    10:00 +30°C° 0.1 mm 1 mps 755 mmHg 54%
    11:00 +29°C° 0.8 mm 1 mps 755 mmHg 60%
    12:00 +27°C° 0.8 mm 1 mps 755 mmHg 65%
    13:00 +26°C° 0.8 mm 1 mps 755 mmHg 70%
    14:00 +27°C° 0.1 mm 1 mps 755 mmHg 67%
    15:00 +27°C° 0.1 mm 1 mps 755 mmHg 64%
    16:00 +28°C° 0.1 mm 1 mps 755 mmHg 61%
    17:00 +28°C° 0 mm 1 mps 755 mmHg 62%
    18:00 +27°C° 0 mm 2 mps 755 mmHg 63%
    19:00 +27°C° 0 mm 2 mps 755 mmHg 64%
    20:00 +27°C° 0.1 mm 2 mps 756 mmHg 60%
    21:00 +26°C° 0.1 mm 3 mps 756 mmHg 55%
    22:00 +26°C° 0.1 mm 3 mps 756 mmHg 51%
    23:00 +25°C° 0 mm 4 mps 756 mmHg 48%

    23 July, Tuesday

    Time Temperature Precipitation Wind Pressure Humidity
    00:00 +25°C° 0 mm 4 mps 756 mmHg 45%
    01:00 +23°C° 0 mm 4 mps 756 mmHg 42%
    02:00 +23°C° 0 mm 4 mps 756 mmHg 45%
    03:00 +22°C° 0 mm 3 mps 756 mmHg 49%
    04:00 +21°C° 0 mm 3 mps 756 mmHg 52%
    05:00 +22°C° 0 mm 3 mps 757 mmHg 52%
    06:00 +22°C° 0 mm 3 mps 757 mmHg 52%
    07:00 +24°C° 0 mm 3 mps 758 mmHg 53%
    08:00 +25°C° 0 mm 3 mps 758 mmHg 48%
    09:00 +27°C° 0 mm 3 mps 758 mmHg 44%
    10:00 +28°C° 0 mm 3 mps 758 mmHg 39%
    11:00 +29°C° 0 mm 3 mps 758 mmHg 37%
    12:00 +30°C° 0 mm 3 mps 758 mmHg 36%
    13:00 +30°C° 0 mm 3 mps 758 mmHg 34%
    14:00 +30°C° 0 mm 3 mps 758 mmHg 34%
    15:00 +30°C° 0 mm 3 mps 758 mmHg 35%
    16:00 +29°C° 0 mm 3 mps 758 mmHg 36%
    17:00 +29°C° 0 mm 3 mps 758 mmHg 38%
    18:00 +28°C° 0 mm 3 mps 759 mmHg 40%
    19:00 +27°C° 0 mm 3 mps 759 mmHg 42%
    20:00 +26°C° 0 mm 3 mps 760 mmHg 43%
    21:00 +25°C° 0 mm 4 mps 760 mmHg 43%
    22:00 +23°C° 0 mm 4 mps 761 mmHg 43%
    23:00 +24°C° 0 mm 3 mps 761 mmHg 45%

    24 July, Wednesday

    Time Temperature Precipitation Wind Pressure Humidity
    00:00 +22°C° 0 mm 3 mps 761 mmHg 47%
    01:00 +21°C° 0 mm 3 mps 761 mmHg 49%
    02:00 +21°C° 0 mm 3 mps 761 mmHg 50%
    03:00 +21°C° 0 mm 3 mps 761 mmHg 51%
    04:00 +20°C° 0 mm 3 mps 762 mmHg 52%
    05:00 +21°C° 0 mm 3 mps 762 mmHg 52%
    06:00 +21°C° 0 mm 2 mps 763 mmHg 51%
    07:00 +21°C° 0 mm 2 mps 763 mmHg 50%
    08:00 +24°C° 0 mm 2 mps 763 mmHg 45%
    09:00 +26°C° 0 mm 2 mps 763 mmHg 40%
    10:00 +27°C° 0 mm 2 mps 764 mmHg 35%
    11:00 +28°C° 0 mm 2 mps 763 mmHg 32%
    12:00 +29°C° 0 mm 2 mps 763 mmHg 30%
    13:00 +31°C° 0 mm 1 mps 763 mmHg 27%
    14:00 +30°C° 0 mm 2 mps 763 mmHg 28%
    15:00 +30°C° 0 mm 2 mps 763 mmHg 30%
    16:00 +30°C° 0 mm 3 mps 763 mmHg 31%
    17:00 +29°C° 0 mm 3 mps 763 mmHg 35%
    18:00 +28°C° 0 mm 2 mps 763 mmHg 40%
    19:00 +26°C° 0 mm 2 mps 763 mmHg 44%
    20:00 +26°C° 0 mm 2 mps 764 mmHg 47%
    21:00 +25°C° 0 mm 2 mps 764 mmHg 51%
    22:00 +24°C° 0 mm 2 mps 764 mmHg 54%
    23:00 +24°C° 0 mm 2 mps 765 mmHg 57%
    Show more